******** Week 146 almanac for PRN-01 ******** ID: 01 Health: 000 Eccentricity: 0.1128911972E-001 Time of Applicability(s): 147456.0000 Orbital Inclination(rad): 0.9864958542 Rate of Right Ascen(r/s): -0.7691748964E-008 SQRT(A) (m 1/2): 5153.629395 Right Ascen at Week(rad): -0.1534738416E+001 Argument of Perigee(rad): 0.881741220 Mean Anom(rad): 0.2823130977E+001 Af0(s): 0.4491806030E-003 Af1(s/s): -0.1091393642E-010 week: 146 ******** Week 146 almanac for PRN-02 ******** ID: 02 Health: 000 Eccentricity: 0.2068233490E-001 Time of Applicability(s): 147456.0000 Orbital Inclination(rad): 0.9648403598 Rate of Right Ascen(r/s): -0.7863184676E-008 SQRT(A) (m 1/2): 5153.634766 Right Ascen at Week(rad): -0.1623589085E+001 Argument of Perigee(rad): -1.452537868 Mean Anom(rad): 0.2980229559E+001 Af0(s): -0.6494522095E-003 Af1(s/s): 0.0000000000E+000 week: 146 ******** Week 146 almanac for PRN-03 ******** ID: 03 Health: 000 Eccentricity: 0.3859996796E-002 Time of Applicability(s): 147456.0000 Orbital Inclination(rad): 0.9725042716 Rate of Right Ascen(r/s): -0.7954617056E-008 SQRT(A) (m 1/2): 5153.640625 Right Ascen at Week(rad): -0.4992216138E+000 Argument of Perigee(rad): 0.971771961 Mean Anom(rad): 0.1657708547E+001 Af0(s): -0.9155273438E-004 Af1(s/s): -0.1455191523E-010 week: 146 ******** Week 146 almanac for PRN-04 ******** ID: 04 Health: 000 Eccentricity: 0.1662731171E-002 Time of Applicability(s): 147456.0000 Orbital Inclination(rad): 0.9612091396 Rate of Right Ascen(r/s): -0.7874613724E-008 SQRT(A) (m 1/2): 5153.606934 Right Ascen at Week(rad): 0.5816247697E+000 Argument of Perigee(rad): -3.094330990 Mean Anom(rad): -0.1648375458E+001 Af0(s): -0.1935958862E-003 Af1(s/s): 0.3637978807E-011 week: 146 ******** Week 146 almanac for PRN-05 ******** ID: 05 Health: 000 Eccentricity: 0.5877494812E-002 Time of Applicability(s): 147456.0000 Orbital Inclination(rad): 0.9594774191 Rate of Right Ascen(r/s): -0.8091765626E-008 SQRT(A) (m 1/2): 5153.598633 Right Ascen at Week(rad): -0.5393219538E+000 Argument of Perigee(rad): 1.012226959 Mean Anom(rad): -0.8122387076E+000 Af0(s): -0.6866455078E-004 Af1(s/s): 0.0000000000E+000 week: 146 ******** Week 146 almanac for PRN-06 ******** ID: 06 Health: 000 Eccentricity: 0.2654075623E-002 Time of Applicability(s): 147456.0000 Orbital Inclination(rad): 0.9858786666 Rate of Right Ascen(r/s): -0.7680319916E-008 SQRT(A) (m 1/2): 5153.615234 Right Ascen at Week(rad): -0.1543011276E+001 Argument of Perigee(rad): -0.988367865 Mean Anom(rad): -0.3102868627E+001 Af0(s): 0.1802444458E-003 Af1(s/s): 0.1091393642E-010 week: 146 ******** Week 146 almanac for PRN-07 ******** ID: 07 Health: 000 Eccentricity: 0.1545333862E-001 Time of Applicability(s): 147456.0000 Orbital Inclination(rad): 0.9506210769 Rate of Right Ascen(r/s): -0.7897471819E-008 SQRT(A) (m 1/2): 5153.648438 Right Ascen at Week(rad): 0.1600910062E+001 Argument of Perigee(rad): -2.294207585 Mean Anom(rad): 0.2158204983E+001 Af0(s): 0.3051757812E-003 Af1(s/s): 0.3637978807E-011 week: 146 ******** Week 146 almanac for PRN-08 ******** ID: 08 Health: 000 Eccentricity: 0.7190227509E-002 Time of Applicability(s): 147456.0000 Orbital Inclination(rad): 0.9651879023 Rate of Right Ascen(r/s): -0.8000333246E-008 SQRT(A) (m 1/2): 5153.661621 Right Ascen at Week(rad): -0.2614259793E+001 Argument of Perigee(rad): 0.088204644 Mean Anom(rad): -0.1172803214E+001 Af0(s): -0.5340576172E-004 Af1(s/s): 0.0000000000E+000 week: 146 ******** Week 146 almanac for PRN-09 ******** ID: 09 Health: 000 Eccentricity: 0.2315521240E-002 Time of Applicability(s): 147456.0000 Orbital Inclination(rad): 0.9542223365 Rate of Right Ascen(r/s): -0.7966046104E-008 SQRT(A) (m 1/2): 5153.579102 Right Ascen at Week(rad): 0.5288529844E+000 Argument of Perigee(rad): 1.861345620 Mean Anom(rad): -0.8306659514E+000 Af0(s): -0.3566741943E-003 Af1(s/s): 0.0000000000E+000 week: 146 ******** Week 146 almanac for PRN-10 ******** ID: 10 Health: 000 Eccentricity: 0.7468223572E-002 Time of Applicability(s): 147456.0000 Orbital Inclination(rad): 0.9723305003 Rate of Right Ascen(r/s): -0.7954617056E-008 SQRT(A) (m 1/2): 5153.626465 Right Ascen at Week(rad): -0.5020180578E+000 Argument of Perigee(rad): -2.529385265 Mean Anom(rad): 0.8068076067E+000 Af0(s): -0.3023147583E-003 Af1(s/s): -0.1091393642E-010 week: 146 ******** Week 146 almanac for PRN-11 ******** ID: 11 Health: 063 Eccentricity: 0.2889633179E-003 Time of Applicability(s): 147456.0000 Orbital Inclination(rad): 0.9615986269 Rate of Right Ascen(r/s): -0.7943188009E-008 SQRT(A) (m 1/2): 5153.715820 Right Ascen at Week(rad): -0.1490441724E+001 Argument of Perigee(rad): 2.869671340 Mean Anom(rad): -0.1326128638E+001 Af0(s): -0.7534027100E-004 Af1(s/s): -0.3637978807E-010 week: 146 ******** Week 146 almanac for PRN-12 ******** ID: 12 Health: 000 Eccentricity: 0.8614540100E-002 Time of Applicability(s): 147456.0000 Orbital Inclination(rad): 0.9707545747 Rate of Right Ascen(r/s): -0.8011762293E-008 SQRT(A) (m 1/2): 5153.562500 Right Ascen at Week(rad): 0.2713549846E+001 Argument of Perigee(rad): 1.238046083 Mean Anom(rad): 0.1499237771E+001 Af0(s): -0.1602172852E-003 Af1(s/s): -0.7275957614E-011 week: 146 ******** Week 146 almanac for PRN-13 ******** ID: 13 Health: 000 Eccentricity: 0.5802154541E-002 Time of Applicability(s): 147456.0000 Orbital Inclination(rad): 0.9686093985 Rate of Right Ascen(r/s): -0.7783181344E-008 SQRT(A) (m 1/2): 5153.625488 Right Ascen at Week(rad): 0.6813249073E+000 Argument of Perigee(rad): 0.967408954 Mean Anom(rad): -0.1774492198E+001 Af0(s): 0.2508163452E-003 Af1(s/s): 0.7275957614E-011 week: 146 ******** Week 146 almanac for PRN-14 ******** ID: 14 Health: 000 Eccentricity: 0.1343250275E-002 Time of Applicability(s): 147456.0000 Orbital Inclination(rad): 0.9541444390 Rate of Right Ascen(r/s): -0.8160339911E-008 SQRT(A) (m 1/2): 5153.590820 Right Ascen at Week(rad): 0.2682609947E+001 Argument of Perigee(rad): 3.036425088 Mean Anom(rad): 0.1542936000E+001 Af0(s): -0.7534027100E-004 Af1(s/s): -0.3637978807E-011 week: 146 ******** Week 146 almanac for PRN-15 ******** ID: 15 Health: 000 Eccentricity: 0.1392984390E-001 Time of Applicability(s): 147456.0000 Orbital Inclination(rad): 0.9301100760 Rate of Right Ascen(r/s): -0.8217485148E-008 SQRT(A) (m 1/2): 5153.668457 Right Ascen at Week(rad): 0.4234019169E+000 Argument of Perigee(rad): 1.071884430 Mean Anom(rad): -0.2180366062E+001 Af0(s): -0.8869171143E-004 Af1(s/s): 0.3637978807E-011 week: 146 ******** Week 146 almanac for PRN-16 ******** ID: 16 Health: 000 Eccentricity: 0.1268959045E-001 Time of Applicability(s): 147456.0000 Orbital Inclination(rad): 0.9707186221 Rate of Right Ascen(r/s): -0.8011762293E-008 SQRT(A) (m 1/2): 5153.541016 Right Ascen at Week(rad): 0.2732174455E+001 Argument of Perigee(rad): 0.699422959 Mean Anom(rad): -0.3566123335E+000 Af0(s): -0.4606246948E-003 Af1(s/s): -0.3637978807E-011 week: 146 ******** Week 146 almanac for PRN-17 ******** ID: 17 Health: 000 Eccentricity: 0.1367902756E-001 Time of Applicability(s): 147456.0000 Orbital Inclination(rad): 0.9802400888 Rate of Right Ascen(r/s): -0.7828897534E-008 SQRT(A) (m 1/2): 5153.701172 Right Ascen at Week(rad): -0.2532712386E+001 Argument of Perigee(rad): -1.504854253 Mean Anom(rad): -0.1267239655E+001 Af0(s): 0.5655288696E-003 Af1(s/s): 0.3637978807E-011 week: 146 ******** Week 146 almanac for PRN-18 ******** ID: 18 Health: 000 Eccentricity: 0.2091884613E-002 Time of Applicability(s): 147456.0000 Orbital Inclination(rad): 0.9702871900 Rate of Right Ascen(r/s): -0.7840326581E-008 SQRT(A) (m 1/2): 5153.580566 Right Ascen at Week(rad): -0.1526594760E+001 Argument of Perigee(rad): 3.111231369 Mean Anom(rad): 0.3011555200E+001 Af0(s): 0.2546310425E-003 Af1(s/s): -0.7275957614E-011 week: 146 ******** Week 146 almanac for PRN-19 ******** ID: 19 Health: 000 Eccentricity: 0.8946418762E-002 Time of Applicability(s): 147456.0000 Orbital Inclination(rad): 0.9789517846 Rate of Right Ascen(r/s): -0.7851755629E-008 SQRT(A) (m 1/2): 5153.635254 Right Ascen at Week(rad): -0.2487813862E+001 Argument of Perigee(rad): 1.998916658 Mean Anom(rad): 0.1136184666E+001 Af0(s): 0.1096725464E-003 Af1(s/s): 0.3637978807E-011 week: 146 ******** Week 146 almanac for PRN-20 ******** ID: 20 Health: 000 Eccentricity: 0.5262374878E-002 Time of Applicability(s): 147456.0000 Orbital Inclination(rad): 0.9416089398 Rate of Right Ascen(r/s): -0.8263201338E-008 SQRT(A) (m 1/2): 5153.673340 Right Ascen at Week(rad): -0.6529331550E+000 Argument of Perigee(rad): 3.112999791 Mean Anom(rad): -0.2414826187E+001 Af0(s): 0.5168914795E-003 Af1(s/s): 0.0000000000E+000 week: 146 ******** Week 146 almanac for PRN-21 ******** ID: 21 Health: 000 Eccentricity: 0.2454948425E-001 Time of Applicability(s): 147456.0000 Orbital Inclination(rad): 0.9590879318 Rate of Right Ascen(r/s): -0.7874613724E-008 SQRT(A) (m 1/2): 5153.544922 Right Ascen at Week(rad): -0.1625081495E+001 Argument of Perigee(rad): -1.019631337 Mean Anom(rad): -0.1099955605E+001 Af0(s): 0.1564025879E-003 Af1(s/s): 0.0000000000E+000 week: 146 ******** Week 146 almanac for PRN-22 ******** ID: 22 Health: 063 Eccentricity: 0.1277256012E-001 Time of Applicability(s): 147456.0000 Orbital Inclination(rad): 0.9613349740 Rate of Right Ascen(r/s): -0.7874613724E-008 SQRT(A) (m 1/2): 5153.597168 Right Ascen at Week(rad): 0.6299238176E+000 Argument of Perigee(rad): -1.875984726 Mean Anom(rad): -0.1410980696E+001 Af0(s): 0.0000000000E+000 Af1(s/s): 0.0000000000E+000 week: 146 ******** Week 146 almanac for PRN-23 ******** ID: 23 Health: 000 Eccentricity: 0.1969814301E-002 Time of Applicability(s): 147456.0000 Orbital Inclination(rad): 0.9673690312 Rate of Right Ascen(r/s): -0.7988904198E-008 SQRT(A) (m 1/2): 5153.645996 Right Ascen at Week(rad): -0.5267579921E+000 Argument of Perigee(rad): 2.932850301 Mean Anom(rad): 0.2142900379E+001 Af0(s): 0.7629394531E-005 Af1(s/s): -0.3637978807E-011 week: 146 ******** Week 146 almanac for PRN-24 ******** ID: 24 Health: 000 Eccentricity: 0.1230716705E-001 Time of Applicability(s): 147456.0000 Orbital Inclination(rad): 0.9341008229 Rate of Right Ascen(r/s): -0.8080336578E-008 SQRT(A) (m 1/2): 5153.642090 Right Ascen at Week(rad): 0.1518504285E+001 Argument of Perigee(rad): 0.802930710 Mean Anom(rad): 0.3125293733E+001 Af0(s): 0.2765655518E-003 Af1(s/s): 0.0000000000E+000 week: 146 ******** Week 146 almanac for PRN-25 ******** ID: 25 Health: 000 Eccentricity: 0.1041746140E-001 Time of Applicability(s): 147456.0000 Orbital Inclination(rad): 0.9581291938 Rate of Right Ascen(r/s): -0.8114623721E-008 SQRT(A) (m 1/2): 5153.666016 Right Ascen at Week(rad): 0.2637113710E+001 Argument of Perigee(rad): 0.973013826 Mean Anom(rad): 0.1260579422E+001 Af0(s): 0.2756118774E-003 Af1(s/s): 0.3637978807E-011 week: 146 ******** Week 146 almanac for PRN-26 ******** ID: 26 Health: 000 Eccentricity: 0.6824016571E-002 Time of Applicability(s): 147456.0000 Orbital Inclination(rad): 0.9389484418 Rate of Right Ascen(r/s): -0.8308917528E-008 SQRT(A) (m 1/2): 5153.630371 Right Ascen at Week(rad): 0.2590540016E+001 Argument of Perigee(rad): 0.354197887 Mean Anom(rad): 0.6110864886E+000 Af0(s): 0.1773834229E-003 Af1(s/s): 0.3637978807E-011 week: 146 ******** Week 146 almanac for PRN-27 ******** ID: 27 Health: 000 Eccentricity: 0.1009559631E-001 Time of Applicability(s): 147456.0000 Orbital Inclination(rad): 0.9738704732 Rate of Right Ascen(r/s): -0.7920329914E-008 SQRT(A) (m 1/2): 5153.602539 Right Ascen at Week(rad): -0.2595016873E+001 Argument of Perigee(rad): 0.632227036 Mean Anom(rad): -0.1235576584E+001 Af0(s): 0.8583068848E-004 Af1(s/s): 0.1818989404E-010 week: 146 ******** Week 146 almanac for PRN-29 ******** ID: 29 Health: 000 Eccentricity: 0.1787185669E-002 Time of Applicability(s): 147456.0000 Orbital Inclination(rad): 0.9822354622 Rate of Right Ascen(r/s): -0.7806039439E-008 SQRT(A) (m 1/2): 5153.716797 Right Ascen at Week(rad): -0.2519748451E+001 Argument of Perigee(rad): 2.274975900 Mean Anom(rad): -0.1117891870E+001 Af0(s): -0.4711151123E-003 Af1(s/s): -0.3637978807E-011 week: 146 ******** Week 146 almanac for PRN-30 ******** ID: 30 Health: 000 Eccentricity: 0.5434513092E-002 Time of Applicability(s): 147456.0000 Orbital Inclination(rad): 0.9357905986 Rate of Right Ascen(r/s): -0.8057478483E-008 SQRT(A) (m 1/2): 5153.533203 Right Ascen at Week(rad): 0.1614386323E+001 Argument of Perigee(rad): -2.750310332 Mean Anom(rad): 0.2179512186E+001 Af0(s): -0.5092620850E-003 Af1(s/s): -0.3637978807E-011 week: 146 ******** Week 146 almanac for PRN-31 ******** ID: 31 Health: 000 Eccentricity: 0.1047039032E-001 Time of Applicability(s): 147456.0000 Orbital Inclination(rad): 0.9548575004 Rate of Right Ascen(r/s): -0.7863184676E-008 SQRT(A) (m 1/2): 5153.627930 Right Ascen at Week(rad): 0.1618924225E+001 Argument of Perigee(rad): 0.369312616 Mean Anom(rad): 0.1706935998E+001 Af0(s): -0.1611709595E-003 Af1(s/s): 0.0000000000E+000 week: 146 ******** Week 146 almanac for PRN-32 ******** ID: 32 Health: 000 Eccentricity: 0.5461215973E-002 Time of Applicability(s): 147456.0000 Orbital Inclination(rad): 0.9580812569 Rate of Right Ascen(r/s): -0.7931758961E-008 SQRT(A) (m 1/2): 5153.712891 Right Ascen at Week(rad): 0.5399571178E+000 Argument of Perigee(rad): -2.368892525 Mean Anom(rad): -0.5639045952E+000 Af0(s): -0.5626678467E-004 Af1(s/s): -0.7275957614E-011 week: 146